AAL2547 MMMX-KLAX

Flight info

Callsign AAL2547
Flight time 3h 24m
Altitude 34000
Route SEBON3A SEBON UT124 GDL UJ3 LMM DCT GYM DCT AVRIL DCT ASUTA DCT AMMOR OLAAA2
Aircraft A21N/M-SDE2E3FGHIRWXY/LB1

Departure

Time 2026-05-08 01:26
Airport Mexico City Benito Juárez International Airport (MMMX)

Arrival

Time 2026-05-08 04:50
Airport Los Angeles International Airport (KLAX)
Time Latitude Longitude Altitude Speed Heading
2026-05-08 00:57 19.43693 -99.07776 7278 ft 0 kts 43°
2026-05-08 01:13 19.43692 -99.07777 7306 ft 2 kts 43°
2026-05-08 01:13 19.43675 -99.07797 7306 ft 4 kts 64°
2026-05-08 01:13 19.43669 -99.07823 7306 ft 4 kts 104°
2026-05-08 01:14 19.43681 -99.07844 7306 ft 3 kts 149°
2026-05-08 01:14 19.43683 -99.07845 7306 ft 1 kts 150°
2026-05-08 01:18 19.43680 -99.07843 7306 ft 3 kts 150°
2026-05-08 01:18 19.43679 -99.07842 7306 ft 0 kts 150°
2026-05-08 01:19 19.43660 -99.07831 7306 ft 7 kts 149°
2026-05-08 01:19 19.43618 -99.07807 7306 ft 7 kts 165°
2026-05-08 01:19 19.43571 -99.07836 7306 ft 11 kts 236°
2026-05-08 01:19 19.43520 -99.07927 7306 ft 15 kts 239°
2026-05-08 01:20 19.43470 -99.08017 7306 ft 13 kts 239°
2026-05-08 01:20 19.43425 -99.08098 7306 ft 14 kts 239°
2026-05-08 01:20 19.43373 -99.08191 7306 ft 14 kts 238°
2026-05-08 01:20 19.43325 -99.08275 7306 ft 12 kts 239°
2026-05-08 01:21 19.43282 -99.08350 7306 ft 13 kts 239°
2026-05-08 01:21 19.43226 -99.08453 7306 ft 17 kts 239°
2026-05-08 01:21 19.43170 -99.08552 7306 ft 15 kts 238°
2026-05-08 01:21 19.43120 -99.08640 7306 ft 13 kts 238°
2026-05-08 01:22 19.43076 -99.08717 7306 ft 11 kts 241°
2026-05-08 01:22 19.43039 -99.08786 7306 ft 10 kts 239°
2026-05-08 01:22 19.42998 -99.08859 7306 ft 12 kts 238°
2026-05-08 01:22 19.42958 -99.08930 7306 ft 10 kts 239°
2026-05-08 01:23 19.42923 -99.08991 7306 ft 9 kts 238°
2026-05-08 01:23 19.42881 -99.09035 7306 ft 9 kts 210°
2026-05-08 01:23 19.42824 -99.09067 7306 ft 11 kts 206°
2026-05-08 01:23 19.42760 -99.09089 7306 ft 9 kts 172°
2026-05-08 01:24 19.42752 -99.09063 7306 ft 3 kts 60°
2026-05-08 01:24 19.42762 -99.09044 7306 ft 6 kts 59°
2026-05-08 01:24 19.42849 -99.08887 7306 ft 46 kts 59°
2026-05-08 01:24 19.43091 -99.08458 7304 ft 88 kts 59°
2026-05-08 01:25 19.43484 -99.07760 7308 ft 132 kts 59°
2026-05-08 01:25 19.44015 -99.06816 7307 ft 164 kts 59°
2026-05-08 01:25 19.44610 -99.05737 7466 ft 171 kts 59°
2026-05-08 01:25 19.45024 -99.05011 7641 ft 170 kts 57°
2026-05-08 01:26 19.45889 -99.03609 8068 ft 175 kts 57°
2026-05-08 01:26 19.46550 -99.02509 8413 ft 180 kts 58°
2026-05-08 01:26 19.47195 -99.01364 8780 ft 184 kts 58°
2026-05-08 01:26 19.47635 -99.00564 8985 ft 188 kts 60°
2026-05-08 01:27 19.48305 -98.99342 9197 ft 197 kts 59°
2026-05-08 01:27 19.48998 -98.98058 9286 ft 209 kts 61°
2026-05-08 01:27 19.49517 -98.96583 9345 ft 221 kts 81°
2026-05-08 01:27 19.49325 -98.94952 9384 ft 233 kts 113°
2026-05-08 01:28 19.48211 -98.93673 9412 ft 249 kts 152°
2026-05-08 01:28 19.46472 -98.93329 9508 ft 268 kts 186°
2026-05-08 01:28 19.44721 -98.94119 9662 ft 283 kts 220°
2026-05-08 01:28 19.43481 -98.95752 10142 ft 288 kts 236°
2026-05-08 01:29 19.42421 -98.97571 10632 ft 292 kts 237°
2026-05-08 01:29 19.41348 -98.99390 11232 ft 290 kts 235°
2026-05-08 01:29 19.40251 -99.01170 11855 ft 287 kts 234°
2026-05-08 01:29 19.39138 -99.02918 12439 ft 287 kts 234°
2026-05-08 01:30 19.38010 -99.04659 13040 ft 285 kts 235°
2026-05-08 01:30 19.37116 -99.06542 13649 ft 289 kts 251°
2026-05-08 01:30 19.36678 -99.08637 14217 ft 293 kts 258°
2026-05-08 01:30 19.36366 -99.10784 14657 ft 299 kts 259°
2026-05-08 01:31 19.36065 -99.12964 15077 ft 305 kts 259°
2026-05-08 01:31 19.35756 -99.15187 15598 ft 306 kts 259°
2026-05-08 01:31 19.35438 -99.17424 16098 ft 309 kts 258°
2026-05-08 01:31 19.35109 -99.19699 16479 ft 316 kts 259°
2026-05-08 01:32 19.34769 -99.22024 16868 ft 322 kts 259°
2026-05-08 01:32 19.34425 -99.24379 17321 ft 326 kts 259°
2026-05-08 01:32 19.34076 -99.26759 17813 ft 328 kts 259°
2026-05-08 01:32 19.33725 -99.29152 18298 ft 330 kts 258°
2026-05-08 01:33 19.33372 -99.31554 18734 ft 332 kts 258°
2026-05-08 01:33 19.33014 -99.33981 19126 ft 334 kts 258°
2026-05-08 01:33 19.32653 -99.36427 19533 ft 337 kts 259°
2026-05-08 01:33 19.32462 -99.38882 20099 ft 342 kts 270°
2026-05-08 01:34 19.32846 -99.41401 20402 ft 354 kts 282°
2026-05-08 01:34 19.33531 -99.43948 20612 ft 365 kts 284°
2026-05-08 01:34 19.34288 -99.46551 20843 ft 375 kts 284°
2026-05-08 01:34 19.35067 -99.49226 21005 ft 385 kts 284°
2026-05-08 01:35 19.35857 -99.51969 21158 ft 394 kts 284°
2026-05-08 01:35 19.36657 -99.54771 21300 ft 402 kts 284°
2026-05-08 01:35 19.37498 -99.57783 21349 ft 412 kts 282°
2026-05-08 01:35 19.38012 -99.60809 21413 ft 416 kts 271°
2026-05-08 01:36 19.38021 -99.63873 21525 ft 418 kts 264°
2026-05-08 01:36 19.37849 -99.66969 21603 ft 423 kts 263°
2026-05-08 01:36 19.37645 -99.70094 21658 ft 427 kts 263°
2026-05-08 01:36 19.37440 -99.73243 21702 ft 431 kts 263°
2026-05-08 01:37 19.37238 -99.76386 21734 ft 434 kts 263°
2026-05-08 01:37 19.37035 -99.79591 21761 ft 437 kts 263°
2026-05-08 01:37 19.36830 -99.82853 21780 ft 440 kts 263°
2026-05-08 01:37 19.36626 -99.86057 21765 ft 443 kts 263°
2026-05-08 01:38 19.36417 -99.89371 21755 ft 446 kts 263°
2026-05-08 01:38 19.36213 -99.92612 21804 ft 448 kts 263°
2026-05-08 01:38 19.36004 -99.95905 21897 ft 448 kts 263°
2026-05-08 01:38 19.35795 -99.99209 21999 ft 449 kts 263°
2026-05-08 01:39 19.35588 -100.02472 22475 ft 440 kts 263°
2026-05-08 01:39 19.35384 -100.05685 23071 ft 433 kts 263°
2026-05-08 01:39 19.35190 -100.08852 23452 ft 431 kts 264°
2026-05-08 01:39 19.35210 -100.12042 23693 ft 435 kts 271°
2026-05-08 01:40 19.35657 -100.15222 23867 ft 440 kts 280°
2026-05-08 01:40 19.36497 -100.18354 24107 ft 444 kts 284°
2026-05-08 01:40 19.37466 -100.21468 24350 ft 446 kts 286°
2026-05-08 01:40 19.38498 -100.24579 24595 ft 449 kts 287°
2026-05-08 01:41 19.39557 -100.27696 24860 ft 450 kts 287°
2026-05-08 01:41 19.40619 -100.30818 25059 ft 451 kts 287°
2026-05-08 01:41 19.41675 -100.33946 25336 ft 452 kts 287°
2026-05-08 01:41 19.42726 -100.37089 25570 ft 453 kts 287°
2026-05-08 01:42 19.43771 -100.40242 25817 ft 455 kts 287°
2026-05-08 01:42 19.44817 -100.43413 26017 ft 456 kts 287°
2026-05-08 01:42 19.45862 -100.46592 26259 ft 457 kts 286°
2026-05-08 01:42 19.46909 -100.49779 26488 ft 459 kts 286°
2026-05-08 01:43 19.47956 -100.52973 26724 ft 460 kts 286°
2026-05-08 01:43 19.49008 -100.56180 26994 ft 461 kts 286°
2026-05-08 01:43 19.50065 -100.59397 27240 ft 461 kts 286°
2026-05-08 01:43 19.51119 -100.62614 27463 ft 463 kts 286°
2026-05-08 01:44 19.52176 -100.65843 27654 ft 464 kts 286°
2026-05-08 01:44 19.53220 -100.69035 27871 ft 465 kts 286°
2026-05-08 01:44 19.54280 -100.72274 28049 ft 466 kts 286°
2026-05-08 01:44 19.55361 -100.75519 28251 ft 468 kts 287°
2026-05-08 01:45 19.56462 -100.78765 28427 ft 469 kts 287°
2026-05-08 01:45 19.57573 -100.82018 28609 ft 469 kts 287°
2026-05-08 01:45 19.58690 -100.85280 28769 ft 471 kts 287°
2026-05-08 01:45 19.59810 -100.88553 28992 ft 471 kts 287°
2026-05-08 01:46 19.60924 -100.91814 29246 ft 470 kts 287°
2026-05-08 01:46 19.62034 -100.95070 29466 ft 469 kts 287°
2026-05-08 01:46 19.63127 -100.98279 29742 ft 467 kts 287°
2026-05-08 01:46 19.64227 -101.01515 29988 ft 466 kts 287°
2026-05-08 01:47 19.65327 -101.04753 30226 ft 465 kts 287°
2026-05-08 01:47 19.66420 -101.07975 30450 ft 464 kts 287°
2026-05-08 01:47 19.67511 -101.11195 30650 ft 464 kts 286°
2026-05-08 01:48 19.69689 -101.17633 31286 ft 462 kts 286°
2026-05-08 01:48 19.70773 -101.20836 31480 ft 461 kts 286°
2026-05-08 01:48 19.71853 -101.24031 31663 ft 460 kts 286°
2026-05-08 01:48 19.72932 -101.27227 31710 ft 459 kts 286°
2026-05-08 01:49 19.74010 -101.30420 31927 ft 458 kts 286°
2026-05-08 01:49 19.75084 -101.33601 32242 ft 455 kts 286°
2026-05-08 01:49 19.76148 -101.36756 32505 ft 453 kts 286°
2026-05-08 01:49 19.77209 -101.39902 32690 ft 452 kts 286°
2026-05-08 01:50 19.78263 -101.43033 32923 ft 450 kts 286°
2026-05-08 01:50 19.79316 -101.46161 33148 ft 449 kts 286°
2026-05-08 01:50 19.80366 -101.49285 33297 ft 449 kts 286°
2026-05-08 01:50 19.81413 -101.52401 33444 ft 448 kts 286°
2026-05-08 01:51 19.82458 -101.55516 33583 ft 448 kts 286°
2026-05-08 01:51 19.83505 -101.58634 33727 ft 447 kts 286°
2026-05-08 01:51 19.85578 -101.64818 33801 ft 447 kts 286°
2026-05-08 01:52 19.87660 -101.71036 33802 ft 446 kts 286°
2026-05-08 01:52 19.89735 -101.77241 33810 ft 445 kts 286°
2026-05-08 01:53 19.91805 -101.83440 33809 ft 445 kts 286°
2026-05-08 01:53 19.93874 -101.89646 33770 ft 445 kts 286°
2026-05-08 01:54 19.95938 -101.95843 33771 ft 445 kts 286°
2026-05-08 01:54 19.98001 -102.02044 33771 ft 445 kts 286°
2026-05-08 01:55 20.00060 -102.08241 33784 ft 445 kts 286°
2026-05-08 01:55 20.02119 -102.14447 33783 ft 445 kts 285°
2026-05-08 01:56 20.04175 -102.20650 33782 ft 445 kts 285°
2026-05-08 01:56 20.06227 -102.26850 33744 ft 443 kts 285°
2026-05-08 01:57 20.08268 -102.33025 33740 ft 442 kts 285°
2026-05-08 01:57 20.10305 -102.39201 33742 ft 442 kts 285°
2026-05-08 01:58 20.12338 -102.45369 33742 ft 442 kts 285°
2026-05-08 01:58 20.14355 -102.51493 33748 ft 441 kts 285°
2026-05-08 01:59 20.16382 -102.57659 33723 ft 441 kts 285°
2026-05-08 01:59 20.18404 -102.63821 33731 ft 441 kts 285°
2026-05-08 02:00 20.20680 -102.69897 33731 ft 444 kts 293°
2026-05-08 02:00 20.23571 -102.75726 33733 ft 446 kts 295°
2026-05-08 02:01 20.26579 -102.81504 33748 ft 446 kts 295°
2026-05-08 02:01 20.29607 -102.87282 33731 ft 447 kts 295°
2026-05-08 02:02 20.32626 -102.93072 33764 ft 447 kts 295°
2026-05-08 02:02 20.35644 -102.98884 33736 ft 449 kts 295°
2026-05-08 02:03 20.38664 -103.04712 33743 ft 450 kts 295°
2026-05-08 02:03 20.41685 -103.10547 33759 ft 450 kts 295°
2026-05-08 02:04 20.43174 -103.13430 33957 ft 450 kts 295°
2026-05-08 02:04 20.44685 -103.16356 33996 ft 450 kts 295°
2026-05-08 02:04 20.47706 -103.22208 34070 ft 451 kts 295°
2026-05-08 02:05 20.50732 -103.28068 34074 ft 451 kts 295°
2026-05-08 02:05 20.54501 -103.33465 34078 ft 458 kts 308°
2026-05-08 02:06 20.58876 -103.38421 34109 ft 459 kts 310°
2026-05-08 02:06 20.62598 -103.42461 34040 ft 459 kts 310°
2026-05-08 02:07 20.67062 -103.47289 33964 ft 456 kts 310°
2026-05-08 02:07 20.71495 -103.52119 33904 ft 455 kts 309°
2026-05-08 02:08 20.75916 -103.56961 33835 ft 454 kts 309°
2026-05-08 02:08 20.80327 -103.61796 33812 ft 454 kts 309°
2026-05-08 02:09 20.84741 -103.66641 33832 ft 454 kts 309°
2026-05-08 02:09 20.89113 -103.71451 33842 ft 454 kts 309°
2026-05-08 02:10 20.93518 -103.76299 33844 ft 454 kts 309°
2026-05-08 02:10 20.97920 -103.81146 33873 ft 454 kts 309°
2026-05-08 02:11 21.02319 -103.85997 33876 ft 454 kts 309°
2026-05-08 02:11 21.06723 -103.90852 33866 ft 455 kts 309°
2026-05-08 02:12 21.11131 -103.95729 33893 ft 455 kts 309°
2026-05-08 02:12 21.15546 -104.00603 33889 ft 456 kts 309°
2026-05-08 02:13 21.19952 -104.05482 33886 ft 455 kts 309°
2026-05-08 02:13 21.24361 -104.10368 33918 ft 456 kts 308°
2026-05-08 02:14 21.28767 -104.15247 33916 ft 455 kts 308°
2026-05-08 02:14 21.33163 -104.20128 33930 ft 454 kts 308°
2026-05-08 02:15 21.37557 -104.25004 33947 ft 456 kts 308°
2026-05-08 02:15 21.41978 -104.29913 33944 ft 457 kts 308°
2026-05-08 02:16 21.46365 -104.34788 33951 ft 457 kts 308°
2026-05-08 02:16 21.50786 -104.39708 33969 ft 457 kts 308°
2026-05-08 02:17 21.55197 -104.44619 33959 ft 456 kts 308°
2026-05-08 02:17 21.59598 -104.49525 33956 ft 456 kts 308°
2026-05-08 02:18 21.64003 -104.54443 33956 ft 457 kts 308°
2026-05-08 02:18 21.68408 -104.59365 33952 ft 457 kts 308°
2026-05-08 02:19 21.72802 -104.64277 33946 ft 457 kts 308°
2026-05-08 02:19 21.77201 -104.69200 33945 ft 457 kts 308°
2026-05-08 02:20 21.81598 -104.74124 33939 ft 455 kts 307°
2026-05-08 02:20 21.85982 -104.79033 33939 ft 454 kts 307°
2026-05-08 02:21 21.90363 -104.83955 33934 ft 456 kts 307°
2026-05-08 02:21 21.94752 -104.88891 33932 ft 456 kts 307°
2026-05-08 02:22 21.99134 -104.93823 33934 ft 456 kts 307°
2026-05-08 02:22 22.03523 -104.98761 33924 ft 456 kts 307°
2026-05-08 02:23 22.07878 -105.03668 33951 ft 456 kts 307°
2026-05-08 02:23 22.12260 -105.08612 33920 ft 456 kts 307°
2026-05-08 02:24 22.16635 -105.13552 33926 ft 455 kts 307°
2026-05-08 02:24 22.21007 -105.18493 33910 ft 455 kts 307°
2026-05-08 02:25 22.25382 -105.23442 33893 ft 455 kts 307°
2026-05-08 02:25 22.29754 -105.28393 33897 ft 455 kts 307°
2026-05-08 02:26 22.34122 -105.33345 33909 ft 455 kts 306°
2026-05-08 02:26 22.38481 -105.38290 33883 ft 454 kts 306°
2026-05-08 02:27 22.42837 -105.43235 33887 ft 454 kts 306°
2026-05-08 02:27 22.47189 -105.48182 33887 ft 454 kts 306°
2026-05-08 02:28 22.51505 -105.53093 33872 ft 454 kts 306°
2026-05-08 02:28 22.55852 -105.58045 33875 ft 454 kts 306°
2026-05-08 02:29 22.60196 -105.62997 33878 ft 454 kts 306°
2026-05-08 02:29 22.64541 -105.67957 33870 ft 454 kts 306°
2026-05-08 02:30 22.68877 -105.72908 33873 ft 452 kts 305°
2026-05-08 02:30 22.73200 -105.77851 33873 ft 452 kts 305°
2026-05-08 02:31 22.77519 -105.82795 33870 ft 451 kts 305°
2026-05-08 02:31 22.81807 -105.87710 33873 ft 451 kts 305°
2026-05-08 02:32 22.86121 -105.92657 33867 ft 451 kts 305°
2026-05-08 02:32 22.90402 -105.97572 33869 ft 451 kts 305°
2026-05-08 02:33 22.94718 -106.02532 33876 ft 450 kts 304°
2026-05-08 02:33 22.99011 -106.07469 33874 ft 450 kts 304°
2026-05-08 02:34 23.03309 -106.12418 33875 ft 450 kts 304°
2026-05-08 02:34 23.07599 -106.17362 33877 ft 449 kts 304°
2026-05-08 02:35 23.11853 -106.22272 33879 ft 450 kts 304°
2026-05-08 02:35 23.16147 -106.27218 33878 ft 450 kts 305°
2026-05-08 02:36 23.20568 -106.32068 33910 ft 452 kts 306°
2026-05-08 02:36 23.25048 -106.36863 33876 ft 451 kts 306°
2026-05-08 02:37 23.29519 -106.41658 33879 ft 450 kts 306°
2026-05-08 02:37 23.33964 -106.46454 33880 ft 450 kts 306°
2026-05-08 02:38 23.38404 -106.51259 33881 ft 450 kts 306°
2026-05-08 02:38 23.42842 -106.56069 33883 ft 450 kts 306°
2026-05-08 02:39 23.47280 -106.60884 33884 ft 450 kts 306°
2026-05-08 02:39 23.51714 -106.65695 33890 ft 449 kts 305°
2026-05-08 02:40 23.56138 -106.70504 33904 ft 449 kts 305°
2026-05-08 02:40 23.60545 -106.75300 33893 ft 447 kts 305°
2026-05-08 02:41 23.64915 -106.80064 33884 ft 447 kts 305°
2026-05-08 02:41 23.69310 -106.84858 33893 ft 447 kts 305°
2026-05-08 02:42 23.73702 -106.89654 33891 ft 447 kts 305°
2026-05-08 02:42 23.78091 -106.94450 33898 ft 447 kts 305°
2026-05-08 02:43 23.82482 -106.99253 33897 ft 447 kts 304°
2026-05-08 02:43 23.86868 -107.04057 33899 ft 447 kts 304°
2026-05-08 02:44 23.91255 -107.08864 33896 ft 445 kts 304°
2026-05-08 02:44 23.95629 -107.13663 33905 ft 445 kts 304°
2026-05-08 02:45 23.99994 -107.18458 33905 ft 445 kts 304°
2026-05-08 02:45 24.04360 -107.23259 33912 ft 444 kts 304°
2026-05-08 02:46 24.08714 -107.28051 33906 ft 444 kts 304°
2026-05-08 02:46 24.13065 -107.32845 33908 ft 444 kts 304°
2026-05-08 02:47 24.17381 -107.37605 33909 ft 444 kts 304°
2026-05-08 02:47 24.21727 -107.42404 33908 ft 442 kts 304°
2026-05-08 02:48 24.26060 -107.47190 33911 ft 441 kts 304°
2026-05-08 02:48 24.30378 -107.51969 33937 ft 441 kts 304°
2026-05-08 02:49 24.34702 -107.56759 33905 ft 442 kts 304°
2026-05-08 02:49 24.39028 -107.61555 33906 ft 442 kts 304°
2026-05-08 02:50 24.43348 -107.66349 33906 ft 442 kts 304°
2026-05-08 02:50 24.47668 -107.71148 33907 ft 442 kts 304°
2026-05-08 02:51 24.51985 -107.75948 33911 ft 442 kts 304°
2026-05-08 02:51 24.56272 -107.80718 33947 ft 441 kts 304°
2026-05-08 02:52 24.60607 -107.85550 33914 ft 441 kts 304°
2026-05-08 02:52 24.64885 -107.90323 33918 ft 441 kts 304°
2026-05-08 02:53 24.69192 -107.95132 33918 ft 441 kts 304°
2026-05-08 02:53 24.73501 -107.99948 33918 ft 441 kts 304°
2026-05-08 02:54 24.77804 -108.04764 33925 ft 441 kts 304°
2026-05-08 02:54 24.81379 -108.08768 33925 ft 441 kts 304°
2026-05-08 02:55 24.88535 -108.16794 33922 ft 442 kts 304°
2026-05-08 02:56 24.92835 -108.21624 33925 ft 442 kts 304°
2026-05-08 02:56 24.96409 -108.25642 33925 ft 442 kts 303°
2026-05-08 02:57 25.00710 -108.30482 33933 ft 442 kts 303°
2026-05-08 02:57 25.05013 -108.35329 33930 ft 442 kts 303°
2026-05-08 02:58 25.09307 -108.40172 33953 ft 442 kts 303°
2026-05-08 02:58 25.13604 -108.45021 33931 ft 442 kts 303°
2026-05-08 02:59 25.17905 -108.49878 33930 ft 442 kts 303°
2026-05-08 02:59 25.22206 -108.54740 33930 ft 442 kts 303°
2026-05-08 03:00 25.26503 -108.59603 33930 ft 442 kts 303°
2026-05-08 03:00 25.30799 -108.64471 33933 ft 442 kts 303°
2026-05-08 03:01 25.35096 -108.69346 33965 ft 442 kts 303°
2026-05-08 03:01 25.39378 -108.74211 33929 ft 441 kts 303°
2026-05-08 03:02 25.43632 -108.79051 33937 ft 441 kts 303°
2026-05-08 03:02 25.47901 -108.83912 33942 ft 440 kts 303°
2026-05-08 03:03 25.52161 -108.88776 33949 ft 440 kts 303°
2026-05-08 03:03 25.56423 -108.93643 33954 ft 440 kts 303°
2026-05-08 03:04 25.60686 -108.98513 33979 ft 440 kts 303°
2026-05-08 03:04 25.64940 -109.03379 33965 ft 439 kts 303°
2026-05-08 03:05 25.69427 -109.07997 33964 ft 450 kts 311°
2026-05-08 03:05 25.74473 -109.12174 33965 ft 454 kts 314°
2026-05-08 03:06 25.79623 -109.16252 33962 ft 455 kts 314°
2026-05-08 03:06 25.84779 -109.20316 33958 ft 455 kts 314°
2026-05-08 03:07 25.89925 -109.24396 33953 ft 454 kts 313°
2026-05-08 03:07 25.95060 -109.28486 33951 ft 454 kts 313°
2026-05-08 03:08 26.00192 -109.32583 33955 ft 454 kts 313°
2026-05-08 03:08 26.05319 -109.36680 33953 ft 454 kts 313°
2026-05-08 03:09 26.10444 -109.40779 33952 ft 454 kts 313°
2026-05-08 03:09 26.15540 -109.44858 33949 ft 454 kts 313°
2026-05-08 03:10 26.20660 -109.48961 33954 ft 453 kts 314°
2026-05-08 03:10 26.25773 -109.53063 33954 ft 452 kts 314°
2026-05-08 03:11 26.30879 -109.57164 33951 ft 452 kts 313°
2026-05-08 03:11 26.35986 -109.61271 33955 ft 452 kts 313°
2026-05-08 03:12 26.41092 -109.65382 33951 ft 452 kts 313°
2026-05-08 03:12 26.46201 -109.69499 33950 ft 452 kts 313°
2026-05-08 03:13 26.51299 -109.73612 33952 ft 452 kts 313°
2026-05-08 03:13 26.56400 -109.77733 33951 ft 452 kts 313°
2026-05-08 03:14 26.61502 -109.81858 33952 ft 451 kts 314°
2026-05-08 03:14 26.66578 -109.85965 33956 ft 450 kts 314°
2026-05-08 03:15 26.71610 -109.90043 33951 ft 449 kts 314°
2026-05-08 03:15 26.76671 -109.94151 33949 ft 449 kts 314°
2026-05-08 03:16 26.81728 -109.98259 33951 ft 449 kts 314°
2026-05-08 03:16 26.86785 -110.02372 33947 ft 449 kts 314°
2026-05-08 03:17 26.91842 -110.06489 33958 ft 448 kts 314°
2026-05-08 03:17 26.96889 -110.10601 33952 ft 448 kts 314°
2026-05-08 03:18 27.01924 -110.14711 33956 ft 447 kts 314°
2026-05-08 03:18 27.06953 -110.18819 33950 ft 446 kts 314°
2026-05-08 03:19 27.11973 -110.22924 33950 ft 446 kts 314°
2026-05-08 03:19 27.16988 -110.27030 33952 ft 446 kts 314°
2026-05-08 03:20 27.21964 -110.31108 33948 ft 445 kts 314°
2026-05-08 03:20 27.26972 -110.35217 33946 ft 445 kts 314°
2026-05-08 03:21 27.31973 -110.39326 33946 ft 445 kts 314°
2026-05-08 03:21 27.36974 -110.43439 33945 ft 445 kts 314°
2026-05-08 03:22 27.41968 -110.47552 33952 ft 445 kts 316°
2026-05-08 03:22 27.46955 -110.51657 33945 ft 443 kts 315°
2026-05-08 03:23 27.51920 -110.55756 33942 ft 443 kts 315°
2026-05-08 03:23 27.56888 -110.59863 33944 ft 442 kts 315°
2026-05-08 03:24 27.61853 -110.63971 33945 ft 442 kts 315°
2026-05-08 03:24 27.66816 -110.68081 33955 ft 442 kts 316°
2026-05-08 03:25 27.71773 -110.72189 33948 ft 442 kts 316°
2026-05-08 03:25 27.76718 -110.76295 33945 ft 442 kts 316°
2026-05-08 03:26 27.81635 -110.80382 33941 ft 442 kts 316°
2026-05-08 03:26 27.86579 -110.84500 33943 ft 441 kts 317°
2026-05-08 03:27 27.91521 -110.88614 33955 ft 440 kts 317°
2026-05-08 03:27 27.96439 -110.92723 33941 ft 438 kts 316°
2026-05-08 03:28 28.01177 -110.97031 33946 ft 436 kts 314°
2026-05-08 03:28 28.05815 -111.01454 33942 ft 435 kts 314°
2026-05-08 03:29 28.10421 -111.05843 33944 ft 435 kts 314°
2026-05-08 03:29 28.15068 -111.10244 33976 ft 436 kts 314°
2026-05-08 03:30 28.22032 -111.16822 33949 ft 434 kts 314°
2026-05-08 03:31 28.31292 -111.25588 33949 ft 433 kts 314°
2026-05-08 03:32 28.38234 -111.32174 33958 ft 433 kts 314°
2026-05-08 03:32 28.42873 -111.36581 33938 ft 436 kts 314°
2026-05-08 03:33 28.47502 -111.40985 33938 ft 436 kts 314°
2026-05-08 03:33 28.52154 -111.45415 33947 ft 436 kts 314°
2026-05-08 03:34 28.56817 -111.49859 33945 ft 436 kts 314°
2026-05-08 03:34 28.61469 -111.54300 33941 ft 436 kts 314°
2026-05-08 03:35 28.66110 -111.58734 33934 ft 434 kts 314°
2026-05-08 03:35 28.70727 -111.63151 33933 ft 433 kts 313°
2026-05-08 03:36 28.75344 -111.67576 33930 ft 433 kts 313°
2026-05-08 03:36 28.79923 -111.71969 33930 ft 433 kts 313°
2026-05-08 03:37 28.84531 -111.76394 33928 ft 433 kts 313°
2026-05-08 03:37 28.89141 -111.80827 33919 ft 432 kts 314°
2026-05-08 03:38 28.93734 -111.85246 33925 ft 430 kts 314°
2026-05-08 03:38 28.98311 -111.89657 33932 ft 430 kts 314°
2026-05-08 03:39 29.02887 -111.94072 33928 ft 430 kts 314°
2026-05-08 03:39 29.07454 -111.98484 33932 ft 430 kts 314°
2026-05-08 03:40 29.11994 -112.02876 33927 ft 430 kts 314°
2026-05-08 03:40 29.16558 -112.07296 33936 ft 430 kts 314°
2026-05-08 03:41 29.21130 -112.11730 33931 ft 430 kts 314°
2026-05-08 03:41 29.25689 -112.16155 33932 ft 428 kts 314°
2026-05-08 03:42 29.30221 -112.20557 33935 ft 427 kts 314°
2026-05-08 03:42 29.34705 -112.24922 33939 ft 423 kts 316°
2026-05-08 03:43 29.39187 -112.29287 33936 ft 421 kts 316°
2026-05-08 03:43 29.42893 -112.32902 33938 ft 420 kts 316°
2026-05-08 03:44 29.47348 -112.37253 33936 ft 420 kts 316°
2026-05-08 03:44 29.51801 -112.41607 33939 ft 420 kts 316°
2026-05-08 03:45 29.56248 -112.45960 33932 ft 419 kts 317°
2026-05-08 03:45 29.60642 -112.50264 33937 ft 413 kts 317°
2026-05-08 03:46 29.65004 -112.54543 33936 ft 412 kts 317°
2026-05-08 03:46 29.69355 -112.58817 33936 ft 411 kts 317°
2026-05-08 03:47 29.73706 -112.63097 33936 ft 411 kts 317°
2026-05-08 03:47 29.78027 -112.67351 33953 ft 411 kts 317°
2026-05-08 03:48 29.82377 -112.71641 33936 ft 412 kts 317°
2026-05-08 03:48 29.86736 -112.75941 33934 ft 412 kts 317°
2026-05-08 03:49 29.91096 -112.80250 33922 ft 413 kts 317°
2026-05-08 03:49 29.95458 -112.84565 33928 ft 413 kts 317°
2026-05-08 03:50 29.99815 -112.88880 33931 ft 413 kts 317°
2026-05-08 03:50 30.04192 -112.93221 33926 ft 416 kts 318°
2026-05-08 03:51 30.08596 -112.97592 33926 ft 417 kts 318°
2026-05-08 03:51 30.12962 -113.01932 33923 ft 417 kts 318°
2026-05-08 03:52 30.17360 -113.06308 33920 ft 417 kts 318°
2026-05-08 03:52 30.21759 -113.10692 33883 ft 417 kts 318°
2026-05-08 03:53 30.26178 -113.15102 33918 ft 422 kts 319°
2026-05-08 03:53 30.30634 -113.19552 33917 ft 423 kts 319°
2026-05-08 03:54 30.35093 -113.24011 33916 ft 423 kts 319°
2026-05-08 03:54 30.39547 -113.28471 33914 ft 423 kts 319°
2026-05-08 03:55 30.44000 -113.32936 33914 ft 423 kts 319°
2026-05-08 03:55 30.48467 -113.37421 33912 ft 427 kts 321°
2026-05-08 03:56 30.52961 -113.41938 33909 ft 428 kts 321°
2026-05-08 03:56 30.57453 -113.46465 33908 ft 428 kts 320°
2026-05-08 03:57 30.61924 -113.50969 33905 ft 428 kts 320°
2026-05-08 03:57 30.66423 -113.55506 33913 ft 428 kts 321°
2026-05-08 03:58 30.70937 -113.60063 33901 ft 431 kts 322°
2026-05-08 03:58 30.75459 -113.64637 33906 ft 431 kts 321°
2026-05-08 03:59 30.79983 -113.69220 33903 ft 431 kts 321°
2026-05-08 03:59 30.84506 -113.73809 33903 ft 431 kts 321°
2026-05-08 04:00 30.89026 -113.78400 33906 ft 432 kts 322°
2026-05-08 04:00 30.93561 -113.83011 33906 ft 432 kts 322°
2026-05-08 04:01 30.98066 -113.87598 33901 ft 433 kts 322°
2026-05-08 04:01 31.02598 -113.92218 33899 ft 433 kts 322°
2026-05-08 04:02 31.07126 -113.96841 33893 ft 433 kts 322°
2026-05-08 04:02 31.11658 -114.01475 33898 ft 433 kts 322°
2026-05-08 04:03 31.16185 -114.06109 33886 ft 433 kts 322°
2026-05-08 04:03 31.22963 -114.13059 33882 ft 431 kts 321°
2026-05-08 04:04 31.27439 -114.17655 33898 ft 431 kts 321°
2026-05-08 04:04 31.31946 -114.22290 33893 ft 432 kts 321°
2026-05-08 04:05 31.36474 -114.26952 33895 ft 434 kts 321°
2026-05-08 04:05 31.41009 -114.31627 33896 ft 434 kts 321°
2026-05-08 04:06 31.45539 -114.36305 33897 ft 434 kts 321°
2026-05-08 04:06 31.50063 -114.40984 33888 ft 433 kts 321°
2026-05-08 04:07 31.54541 -114.45621 33891 ft 433 kts 321°
2026-05-08 04:07 31.59032 -114.50274 33884 ft 434 kts 321°
2026-05-08 04:08 31.63136 -114.54532 33886 ft 434 kts 320°
2026-05-08 04:08 31.67662 -114.59235 33881 ft 434 kts 320°
2026-05-08 04:09 31.72179 -114.63936 33885 ft 434 kts 321°
2026-05-08 04:09 31.76697 -114.68645 33882 ft 435 kts 321°
2026-05-08 04:10 31.81220 -114.73366 33880 ft 435 kts 321°
2026-05-08 04:10 31.85740 -114.78092 33876 ft 435 kts 320°
2026-05-08 04:11 31.90213 -114.82892 33874 ft 435 kts 320°
2026-05-08 04:11 31.94661 -114.87741 33873 ft 436 kts 320°
2026-05-08 04:12 31.99122 -114.92609 33871 ft 437 kts 320°
2026-05-08 04:12 32.03590 -114.97480 33870 ft 438 kts 320°
2026-05-08 04:13 32.08030 -115.02321 33851 ft 437 kts 320°
2026-05-08 04:13 32.12485 -115.07185 33870 ft 435 kts 320°
2026-05-08 04:14 32.16926 -115.12041 33862 ft 435 kts 319°
2026-05-08 04:14 32.21368 -115.16906 33865 ft 435 kts 319°
2026-05-08 04:15 32.25807 -115.21774 33867 ft 436 kts 319°
2026-05-08 04:15 32.30246 -115.26648 33862 ft 436 kts 319°
2026-05-08 04:16 32.34687 -115.31532 33871 ft 436 kts 319°
2026-05-08 04:16 32.39136 -115.36430 33862 ft 438 kts 319°
2026-05-08 04:17 32.43597 -115.41349 33870 ft 438 kts 319°
2026-05-08 04:17 32.48062 -115.46281 33866 ft 438 kts 319°
2026-05-08 04:18 32.52496 -115.51185 33865 ft 439 kts 319°
2026-05-08 04:18 32.56948 -115.56115 33875 ft 438 kts 319°
2026-05-08 04:19 32.61395 -115.61048 33878 ft 438 kts 319°
2026-05-08 04:19 32.65577 -115.66304 33891 ft 442 kts 308°
2026-05-08 04:20 32.68981 -115.72415 33887 ft 445 kts 305°
2026-05-08 04:20 32.72242 -115.78565 33893 ft 445 kts 304°
2026-05-08 04:21 32.75330 -115.84422 33890 ft 444 kts 304°
2026-05-08 04:21 32.78055 -115.89601 33899 ft 444 kts 304°
2026-05-08 04:22 32.81535 -115.96308 33899 ft 445 kts 303°
2026-05-08 04:22 32.84709 -116.02635 33916 ft 445 kts 303°
2026-05-08 04:23 32.87875 -116.08964 33921 ft 445 kts 303°
2026-05-08 04:23 32.91020 -116.15257 33935 ft 445 kts 303°
2026-05-08 04:24 32.94182 -116.21594 33939 ft 445 kts 303°
2026-05-08 04:24 32.97022 -116.27293 33944 ft 445 kts 303°
2026-05-08 04:25 32.99889 -116.33055 33955 ft 445 kts 303°
2026-05-08 04:25 33.03034 -116.39392 33831 ft 444 kts 303°
2026-05-08 04:26 33.04569 -116.42593 33006 ft 447 kts 300°
2026-05-08 04:26 33.05930 -116.45969 31992 ft 454 kts 297°
2026-05-08 04:26 33.07228 -116.49416 31086 ft 458 kts 297°
2026-05-08 04:26 33.08526 -116.52900 30273 ft 460 kts 297°
2026-05-08 04:27 33.09825 -116.56388 29409 ft 461 kts 297°
2026-05-08 04:27 33.11128 -116.59883 28563 ft 460 kts 296°
2026-05-08 04:27 33.12418 -116.63364 27793 ft 459 kts 295°
2026-05-08 04:27 33.13436 -116.66979 26945 ft 462 kts 285°
2026-05-08 04:28 33.14082 -116.70736 26076 ft 463 kts 282°
2026-05-08 04:28 33.14637 -116.74516 25178 ft 465 kts 282°
2026-05-08 04:28 33.15185 -116.78341 24252 ft 467 kts 282°
2026-05-08 04:28 33.15736 -116.82162 23430 ft 466 kts 282°
2026-05-08 04:29 33.16282 -116.85945 22703 ft 460 kts 282°
2026-05-08 04:29 33.16825 -116.89693 22038 ft 454 kts 282°
2026-05-08 04:29 33.17359 -116.93383 21371 ft 448 kts 281°
2026-05-08 04:29 33.17888 -116.97029 20713 ft 443 kts 281°
2026-05-08 04:30 33.18409 -117.00628 20063 ft 439 kts 281°
2026-05-08 04:30 33.18927 -117.04210 19401 ft 435 kts 281°
2026-05-08 04:30 33.19438 -117.07751 18728 ft 432 kts 281°
2026-05-08 04:30 33.19946 -117.11276 18023 ft 430 kts 281°
2026-05-08 04:31 33.20443 -117.14732 17301 ft 426 kts 281°
2026-05-08 04:31 33.20941 -117.18206 16607 ft 423 kts 281°
2026-05-08 04:31 33.21435 -117.21654 16006 ft 418 kts 281°
2026-05-08 04:31 33.21921 -117.25058 15326 ft 415 kts 281°
2026-05-08 04:32 33.22404 -117.28440 14664 ft 412 kts 281°
2026-05-08 04:32 33.22887 -117.31804 14003 ft 410 kts 281°
2026-05-08 04:32 33.23232 -117.34066 13728 ft 412 kts 281°
2026-05-08 04:32 33.23765 -117.37479 13567 ft 423 kts 281°
2026-05-08 04:33 33.24306 -117.40938 13328 ft 424 kts 282°
2026-05-08 04:33 33.24846 -117.44400 13074 ft 422 kts 282°
2026-05-08 04:33 33.25374 -117.47792 12825 ft 420 kts 281°
2026-05-08 04:33 33.25933 -117.51218 12581 ft 418 kts 285°
2026-05-08 04:34 33.26943 -117.54457 12336 ft 414 kts 299°
2026-05-08 04:34 33.28399 -117.57398 12084 ft 410 kts 303°
2026-05-08 04:34 33.29942 -117.60255 11848 ft 408 kts 304°
2026-05-08 04:34 33.31488 -117.63089 11610 ft 406 kts 304°
2026-05-08 04:35 33.33021 -117.65911 11362 ft 404 kts 304°
2026-05-08 04:35 33.34695 -117.69009 11160 ft 384 kts 304°
2026-05-08 04:35 33.36108 -117.71636 10951 ft 366 kts 304°
2026-05-08 04:35 33.37456 -117.74148 10712 ft 351 kts 304°
2026-05-08 04:36 33.38746 -117.76552 10507 ft 336 kts 304°
2026-05-08 04:36 33.39965 -117.78826 10310 ft 322 kts 304°
2026-05-08 04:36 33.41150 -117.81038 10114 ft 310 kts 304°
2026-05-08 04:36 33.42289 -117.83166 9921 ft 297 kts 304°
2026-05-08 04:37 33.43389 -117.85219 9707 ft 290 kts 303°
2026-05-08 04:37 33.44471 -117.87239 9538 ft 287 kts 304°
2026-05-08 04:37 33.45547 -117.89250 9365 ft 286 kts 304°
2026-05-08 04:37 33.46625 -117.91251 9198 ft 285 kts 306°
2026-05-08 04:38 33.47932 -117.93010 9019 ft 282 kts 323°
2026-05-08 04:38 33.49637 -117.94140 8867 ft 280 kts 337°
2026-05-08 04:38 33.51459 -117.94973 8697 ft 280 kts 340°
2026-05-08 04:38 33.53292 -117.95752 8531 ft 279 kts 340°
2026-05-08 04:39 33.55119 -117.96526 8364 ft 278 kts 340°
2026-05-08 04:39 33.56940 -117.97306 8206 ft 278 kts 339°
2026-05-08 04:39 33.58756 -117.98089 8040 ft 277 kts 339°
2026-05-08 04:39 33.60566 -117.98873 7882 ft 276 kts 339°
2026-05-08 04:40 33.62378 -117.99632 7712 ft 275 kts 341°
2026-05-08 04:40 33.64201 -118.00320 7551 ft 275 kts 341°
2026-05-08 04:40 33.66032 -118.00992 7385 ft 274 kts 341°
2026-05-08 04:40 33.67854 -118.01657 7222 ft 274 kts 341°
2026-05-08 04:41 33.69676 -118.02322 7061 ft 273 kts 341°
2026-05-08 04:41 33.71489 -118.02984 6999 ft 272 kts 341°
2026-05-08 04:41 33.73298 -118.03645 6994 ft 272 kts 341°
2026-05-08 04:41 33.75109 -118.04308 6974 ft 272 kts 341°
2026-05-08 04:42 33.76642 -118.04869 6962 ft 272 kts 341°
2026-05-08 04:42 33.78182 -118.05467 6962 ft 269 kts 338°
2026-05-08 04:42 33.79868 -118.06228 6863 ft 256 kts 336°
2026-05-08 04:42 33.81505 -118.07002 6524 ft 252 kts 336°
2026-05-08 04:43 33.83123 -118.07781 6144 ft 249 kts 336°
2026-05-08 04:43 33.84732 -118.08554 5730 ft 248 kts 337°
2026-05-08 04:43 33.86318 -118.09316 5417 ft 243 kts 337°
2026-05-08 04:43 33.87884 -118.10069 5125 ft 242 kts 337°
2026-05-08 04:44 33.89450 -118.10634 5022 ft 227 kts 349°
2026-05-08 04:44 33.90968 -118.10823 4971 ft 210 kts 354°
2026-05-08 04:44 33.92371 -118.11008 4967 ft 199 kts 344°
2026-05-08 04:44 33.93602 -118.11662 4834 ft 191 kts 327°
2026-05-08 04:45 33.94688 -118.12594 4415 ft 193 kts 322°
2026-05-08 04:45 33.95526 -118.13826 4017 ft 193 kts 292°
2026-05-08 04:45 33.95887 -118.15407 3699 ft 198 kts 279°
2026-05-08 04:45 33.95907 -118.17039 3445 ft 191 kts 265°
2026-05-08 04:46 33.95757 -118.18585 3241 ft 181 kts 264°
2026-05-08 04:46 33.95602 -118.20077 3037 ft 179 kts 263°
2026-05-08 04:46 33.95453 -118.21563 2822 ft 179 kts 263°
2026-05-08 04:46 33.95302 -118.23055 2581 ft 180 kts 263°
2026-05-08 04:47 33.95149 -118.24544 2360 ft 178 kts 262°
2026-05-08 04:47 33.95004 -118.25959 2119 ft 163 kts 262°
2026-05-08 04:47 33.94870 -118.27264 1902 ft 153 kts 262°
2026-05-08 04:47 33.94739 -118.28533 1715 ft 153 kts 262°
2026-05-08 04:48 33.94606 -118.29811 1524 ft 154 kts 261°
2026-05-08 04:48 33.94471 -118.31085 1325 ft 153 kts 261°
2026-05-08 04:48 33.94332 -118.32345 1097 ft 151 kts 261°
2026-05-08 04:48 33.94201 -118.33588 902 ft 148 kts 262°
2026-05-08 04:49 33.94085 -118.34809 701 ft 145 kts 263°
2026-05-08 04:49 33.93964 -118.36009 512 ft 144 kts 263°
2026-05-08 04:49 33.93845 -118.37200 307 ft 143 kts 263°
2026-05-08 04:49 33.93725 -118.38380 134 ft 145 kts 263°
2026-05-08 04:50 33.93611 -118.39508 98 ft 113 kts 263°
2026-05-08 04:50 33.93538 -118.40210 99 ft 55 kts 263°
2026-05-08 04:50 33.93575 -118.40595 99 ft 36 kts 286°
2026-05-08 04:50 33.93606 -118.40827 99 ft 25 kts 289°
2026-05-08 04:51 33.93714 -118.40904 99 ft 18 kts 352°
2026-05-08 04:51 33.93825 -118.40920 96 ft 11 kts 354°
2026-05-08 04:51 33.93872 -118.40873 97 ft 10 kts 79°
2026-05-08 04:51 33.93904 -118.40810 96 ft 9 kts 12°
2026-05-08 04:52 33.93970 -118.40817 96 ft 10 kts 352°
2026-05-08 04:52 33.94039 -118.40829 97 ft 10 kts 351°
2026-05-08 04:52 33.94113 -118.40838 98 ft 11 kts 354°
2026-05-08 04:52 33.94167 -118.40845 96 ft 5 kts 354°
2026-05-08 04:53 33.94170 -118.40846 98 ft 0 kts 354°
2026-05-08 04:56 33.94229 -118.40853 97 ft 2 kts 354°
2026-05-08 04:57 33.94223 -118.40871 98 ft 7 kts 262°
2026-05-08 04:57 33.94213 -118.40912 96 ft 7 kts 259°
2026-05-08 04:58 33.94210 -118.40936 97 ft 1 kts 263°